Year,Month,Day,Hour,Minute,Value (Times are PST for temperature in C)
2010,03,20,00,00,4.60
2010,03,20,00,01,4.70
2010,03,20,00,02,4.70
2010,03,20,00,03,4.70
2010,03,20,00,04,4.70
2010,03,20,00,05,4.70
2010,03,20,00,06,4.60
2010,03,20,00,07,4.60
2010,03,20,00,08,4.70
2010,03,20,00,09,4.70
2010,03,20,00,10,4.80
2010,03,20,00,11,4.80
2010,03,20,00,12,4.90
2010,03,20,00,13,4.90
2010,03,20,00,14,4.90
2010,03,20,00,15,5.00
2010,03,20,00,16,5.00
2010,03,20,00,17,5.00
2010,03,20,00,18,5.00
2010,03,20,00,19,4.90
2010,03,20,00,20,4.90
2010,03,20,00,21,4.90
2010,03,20,00,22,4.80
2010,03,20,00,23,4.70
2010,03,20,00,24,4.60
2010,03,20,00,25,4.50
2010,03,20,00,26,4.40
2010,03,20,00,27,4.30
2010,03,20,00,28,4.20
2010,03,20,00,29,4.20
2010,03,20,00,30,4.10
2010,03,20,00,31,4.00
2010,03,20,00,32,4.00
2010,03,20,00,33,3.90
2010,03,20,00,34,3.90
2010,03,20,00,35,3.90
2010,03,20,00,36,4.00
2010,03,20,00,37,4.10
2010,03,20,00,38,4.20
2010,03,20,00,39,4.20
2010,03,20,00,40,4.30
2010,03,20,00,41,4.30
2010,03,20,00,42,4.40
2010,03,20,00,43,4.40
2010,03,20,00,44,4.50
2010,03,20,00,45,4.50
2010,03,20,00,46,4.50
2010,03,20,00,47,4.50
2010,03,20,00,48,4.40
2010,03,20,00,49,4.40
2010,03,20,00,50,4.30
2010,03,20,00,51,4.30
2010,03,20,00,52,4.30
2010,03,20,00,53,4.40
2010,03,20,00,54,4.40
2010,03,20,00,55,4.40
2010,03,20,00,56,4.40
2010,03,20,00,57,4.50
2010,03,20,00,58,4.60
2010,03,20,00,59,4.60
2010,03,20,01,00,4.70
2010,03,20,01,01,4.70
2010,03,20,01,02,4.70
2010,03,20,01,03,4.70
2010,03,20,01,04,4.80
2010,03,20,01,05,4.80
2010,03,20,01,06,4.80
2010,03,20,01,07,4.80
2010,03,20,01,08,4.70
2010,03,20,01,09,4.70
2010,03,20,01,10,4.80
2010,03,20,01,11,4.80
2010,03,20,01,12,4.80
2010,03,20,01,13,4.90
2010,03,20,01,14,4.90
2010,03,20,01,15,4.90
2010,03,20,01,16,4.90
2010,03,20,01,17,4.90
2010,03,20,01,18,4.90
2010,03,20,01,19,5.00
2010,03,20,01,20,5.00
2010,03,20,01,21,5.00
2010,03,20,01,22,5.00
2010,03,20,01,23,4.90
2010,03,20,01,24,4.90
2010,03,20,01,25,4.80
2010,03,20,01,26,4.90
2010,03,20,01,27,4.90
2010,03,20,01,28,4.80
2010,03,20,01,29,4.90
2010,03,20,01,30,4.90
2010,03,20,01,31,4.90
2010,03,20,01,32,5.00
2010,03,20,01,33,5.00
2010,03,20,01,34,5.10
2010,03,20,01,35,5.10
2010,03,20,01,36,5.10
2010,03,20,01,37,5.10
2010,03,20,01,38,5.10
2010,03,20,01,39,5.10
2010,03,20,01,40,5.10
2010,03,20,01,41,5.10
2010,03,20,01,42,5.20
2010,03,20,01,43,5.20
2010,03,20,01,44,5.20
2010,03,20,01,45,5.20
2010,03,20,01,46,5.20
2010,03,20,01,47,5.20
2010,03,20,01,48,5.20
2010,03,20,01,49,5.20
2010,03,20,01,50,5.20
2010,03,20,01,51,5.20
2010,03,20,01,52,5.20
2010,03,20,01,53,5.20
2010,03,20,01,54,5.20
2010,03,20,01,55,5.20
2010,03,20,01,56,5.20
2010,03,20,01,57,5.20
2010,03,20,01,58,5.20
2010,03,20,01,59,5.20
2010,03,20,02,00,5.30
2010,03,20,02,01,5.30
2010,03,20,02,02,5.30
2010,03,20,02,03,5.30
2010,03,20,02,04,5.30
2010,03,20,02,05,5.40
2010,03,20,02,06,5.40
2010,03,20,02,07,5.40
2010,03,20,02,08,5.40
2010,03,20,02,09,5.40
2010,03,20,02,10,5.40
2010,03,20,02,11,5.40
2010,03,20,02,12,5.40
2010,03,20,02,13,5.40
2010,03,20,02,14,5.40
2010,03,20,02,15,5.30
2010,03,20,02,16,5.30
2010,03,20,02,17,5.30
2010,03,20,02,18,5.30
2010,03,20,02,19,5.20
2010,03,20,02,20,5.20
2010,03,20,02,21,5.20
2010,03,20,02,22,5.10
2010,03,20,02,23,5.10
2010,03,20,02,24,5.10
2010,03,20,02,25,5.10
2010,03,20,02,26,5.10
2010,03,20,02,27,5.10
2010,03,20,02,28,5.10
2010,03,20,02,29,5.10
2010,03,20,02,30,5.20
2010,03,20,02,31,5.20
2010,03,20,02,32,5.20
2010,03,20,02,33,5.20
2010,03,20,02,34,5.20
2010,03,20,02,35,5.20
2010,03,20,02,36,5.20
2010,03,20,02,37,5.20
2010,03,20,02,38,5.10
2010,03,20,02,39,5.10
2010,03,20,02,40,5.00
2010,03,20,02,41,5.00
2010,03,20,02,42,5.00
2010,03,20,02,43,5.00
2010,03,20,02,44,5.10
2010,03,20,02,45,5.10
2010,03,20,02,46,5.10
2010,03,20,02,47,5.10
2010,03,20,02,48,5.10
2010,03,20,02,49,5.10
2010,03,20,02,50,5.10
2010,03,20,02,51,5.20
2010,03,20,02,52,5.20
2010,03,20,02,53,5.20
2010,03,20,02,54,5.20
2010,03,20,02,55,5.20
2010,03,20,02,56,5.20
2010,03,20,02,57,5.20
2010,03,20,02,58,5.20
2010,03,20,02,59,5.20
2010,03,20,03,00,5.20
2010,03,20,03,01,5.20
2010,03,20,03,02,5.30
2010,03,20,03,03,5.30
2010,03,20,03,04,5.30
2010,03,20,03,05,5.30
2010,03,20,03,06,5.20
2010,03,20,03,07,5.20
2010,03,20,03,08,5.20
2010,03,20,03,09,5.20
2010,03,20,03,10,5.20
2010,03,20,03,11,5.20
2010,03,20,03,12,5.10
2010,03,20,03,13,5.10
2010,03,20,03,14,5.10
2010,03,20,03,15,5.10
2010,03,20,03,16,5.10
2010,03,20,03,17,5.00
2010,03,20,03,18,5.10
2010,03,20,03,19,5.10
2010,03,20,03,20,5.10
2010,03,20,03,21,5.10
2010,03,20,03,22,5.10
2010,03,20,03,23,5.10
2010,03,20,03,24,5.10
2010,03,20,03,25,5.10
2010,03,20,03,26,5.10
2010,03,20,03,27,5.10
2010,03,20,03,28,5.10
2010,03,20,03,29,5.10
2010,03,20,03,30,5.10
2010,03,20,03,31,5.10
2010,03,20,03,32,5.10
2010,03,20,03,33,5.10
2010,03,20,03,34,5.10
2010,03,20,03,35,5.10
2010,03,20,03,36,5.10
2010,03,20,03,37,5.10
2010,03,20,03,38,5.10
2010,03,20,03,39,5.10
2010,03,20,03,40,5.10
2010,03,20,03,41,5.10
2010,03,20,03,42,5.10
2010,03,20,03,43,5.10
2010,03,20,03,44,5.10
2010,03,20,03,45,5.10
2010,03,20,03,46,5.10
2010,03,20,03,47,5.10
2010,03,20,03,48,5.10
2010,03,20,03,49,5.10
2010,03,20,03,50,5.10
2010,03,20,03,51,5.10
2010,03,20,03,52,5.00
2010,03,20,03,53,5.00
2010,03,20,03,54,5.00
2010,03,20,03,55,5.00
2010,03,20,03,56,4.90
2010,03,20,03,57,4.90
2010,03,20,03,58,4.90
2010,03,20,03,59,4.90
2010,03,20,04,00,4.90
2010,03,20,04,01,4.90
2010,03,20,04,02,4.90
2010,03,20,04,03,4.90
2010,03,20,04,06,4.90
2010,03,20,04,07,4.90
2010,03,20,04,08,4.90
2010,03,20,04,09,4.90
2010,03,20,04,10,4.90
2010,03,20,04,11,4.90
2010,03,20,04,12,5.00
2010,03,20,04,13,5.00
2010,03,20,04,14,5.00
2010,03,20,04,15,5.00
2010,03,20,04,16,5.10
2010,03,20,04,17,5.10
2010,03,20,04,18,5.10
2010,03,20,04,19,5.10
2010,03,20,04,20,5.10
2010,03,20,04,21,5.00
2010,03,20,04,22,5.00
2010,03,20,04,23,5.00
2010,03,20,04,24,5.00
2010,03,20,04,25,4.90
2010,03,20,04,26,4.90
2010,03,20,04,27,4.90
2010,03,20,04,28,4.80
2010,03,20,04,29,4.80
2010,03,20,04,30,4.80
2010,03,20,04,31,4.80
2010,03,20,04,32,4.80
2010,03,20,04,33,4.80
2010,03,20,04,34,4.80
2010,03,20,04,35,4.80
2010,03,20,04,36,4.90
2010,03,20,04,37,4.90
2010,03,20,04,38,4.90
2010,03,20,04,39,4.90
2010,03,20,04,40,4.90
2010,03,20,04,41,4.90
2010,03,20,04,42,4.90
2010,03,20,04,43,4.80
2010,03,20,04,44,4.80
2010,03,20,04,45,4.80
2010,03,20,04,46,4.80
2010,03,20,04,47,4.70
2010,03,20,04,48,4.70
2010,03,20,04,49,4.70
2010,03,20,04,50,4.60
2010,03,20,04,51,4.60
2010,03,20,04,52,4.60
2010,03,20,04,53,4.60
2010,03,20,04,54,4.60
2010,03,20,04,55,4.60
2010,03,20,04,56,4.60
2010,03,20,04,57,4.60
2010,03,20,04,58,4.50
2010,03,20,04,59,4.50
2010,03,20,05,00,4.50
2010,03,20,05,01,4.50
2010,03,20,05,02,4.50
2010,03,20,05,03,4.50
2010,03,20,05,04,4.50
2010,03,20,05,05,4.50
2010,03,20,05,06,4.60
2010,03,20,05,07,4.60
2010,03,20,05,08,4.60
2010,03,20,05,09,4.60
2010,03,20,05,10,4.60
2010,03,20,05,11,4.60
2010,03,20,05,12,4.60
2010,03,20,05,13,4.60
2010,03,20,05,14,4.50
2010,03,20,05,15,4.50
2010,03,20,05,16,4.50
2010,03,20,05,17,4.40
2010,03,20,05,18,4.40
2010,03,20,05,19,4.40
2010,03,20,05,20,4.40
2010,03,20,05,21,4.40
2010,03,20,05,22,4.40
2010,03,20,05,23,4.40
2010,03,20,05,24,4.40
2010,03,20,05,25,4.40
2010,03,20,05,26,4.40
2010,03,20,05,27,4.40
2010,03,20,05,28,4.40
2010,03,20,05,29,4.40
2010,03,20,05,30,4.40
2010,03,20,05,31,4.50
2010,03,20,05,32,4.50
2010,03,20,05,33,4.50
2010,03,20,05,34,4.50
2010,03,20,05,35,4.50
2010,03,20,05,36,4.50
2010,03,20,05,37,4.50
2010,03,20,05,38,4.40
2010,03,20,05,39,4.40
2010,03,20,05,40,4.40
2010,03,20,05,41,4.40
2010,03,20,05,42,4.40
2010,03,20,05,43,4.40
2010,03,20,05,44,4.40
2010,03,20,05,45,4.40
2010,03,20,05,46,4.40
2010,03,20,05,47,4.40
2010,03,20,05,48,4.40
2010,03,20,05,49,4.40
2010,03,20,05,50,4.50
2010,03,20,05,51,4.50
2010,03,20,05,52,4.50
2010,03,20,05,53,4.60
2010,03,20,05,54,4.60
2010,03,20,05,55,4.60
2010,03,20,05,56,4.60
2010,03,20,05,57,4.60
2010,03,20,05,58,4.60
2010,03,20,05,59,4.60
2010,03,20,06,00,4.60
2010,03,20,06,01,4.60
2010,03,20,06,02,4.60
2010,03,20,06,03,4.60
2010,03,20,06,04,4.60
2010,03,20,06,05,4.60
2010,03,20,06,06,4.60
2010,03,20,06,07,4.50
2010,03,20,06,08,4.50
2010,03,20,06,09,4.50
2010,03,20,06,10,4.50
2010,03,20,06,11,4.50
2010,03,20,06,12,4.40
2010,03,20,06,13,4.40
2010,03,20,06,14,4.40
2010,03,20,06,15,4.40
2010,03,20,06,16,4.30
2010,03,20,06,17,4.30
2010,03,20,06,18,4.30
2010,03,20,06,19,4.30
2010,03,20,06,20,4.30
2010,03,20,06,21,4.20
2010,03,20,06,22,4.20
2010,03,20,06,23,4.20
2010,03,20,06,24,4.20
2010,03,20,06,25,4.20
2010,03,20,06,26,4.20
2010,03,20,06,27,4.20
2010,03,20,06,28,4.20
2010,03,20,06,29,4.20
2010,03,20,06,30,4.20
2010,03,20,06,31,4.20
2010,03,20,06,32,4.10
2010,03,20,06,33,4.10
2010,03,20,06,34,4.10
2010,03,20,06,35,4.10
2010,03,20,06,36,4.10
2010,03,20,06,37,4.20
2010,03,20,06,38,4.10
2010,03,20,06,39,4.20
2010,03,20,06,40,4.20
2010,03,20,06,41,4.20
2010,03,20,06,42,4.20
2010,03,20,06,43,4.20
2010,03,20,06,44,4.20
2010,03,20,06,45,4.20
2010,03,20,06,46,4.20
2010,03,20,06,47,4.20
2010,03,20,06,48,4.20
2010,03,20,06,49,4.20
2010,03,20,06,50,4.20
2010,03,20,06,51,4.30
2010,03,20,06,52,4.30
2010,03,20,06,53,4.30
2010,03,20,06,54,4.30
2010,03,20,06,55,4.30
2010,03,20,06,56,4.30
2010,03,20,06,57,4.40
2010,03,20,06,58,4.50
2010,03,20,06,59,4.50
2010,03,20,07,00,4.50
2010,03,20,07,01,4.60
2010,03,20,07,02,4.60
2010,03,20,07,03,4.60
2010,03,20,07,04,4.60
2010,03,20,07,05,4.60
2010,03,20,07,06,4.60
2010,03,20,07,07,4.60
2010,03,20,07,08,4.50
2010,03,20,07,09,4.50
2010,03,20,07,10,4.50
2010,03,20,07,11,4.50
2010,03,20,07,12,4.50
2010,03,20,07,13,4.50
2010,03,20,07,14,4.50
2010,03,20,07,15,4.60
2010,03,20,07,16,4.60
2010,03,20,07,17,4.60
2010,03,20,07,18,4.60
2010,03,20,07,19,4.60
2010,03,20,07,20,4.60
2010,03,20,07,21,4.60
2010,03,20,07,22,4.50
2010,03,20,07,23,4.50
2010,03,20,07,24,4.40
2010,03,20,07,25,4.40
2010,03,20,07,26,4.40
2010,03,20,07,27,4.40
2010,03,20,07,28,4.30
2010,03,20,07,29,4.30
2010,03,20,07,30,4.30
2010,03,20,07,31,4.30
2010,03,20,07,32,4.20
2010,03,20,07,33,4.20
2010,03,20,07,34,4.20
2010,03,20,07,35,4.20
2010,03,20,07,36,4.20
2010,03,20,07,37,4.20
2010,03,20,07,38,4.20
2010,03,20,07,39,4.20
2010,03,20,07,40,4.20
2010,03,20,07,41,4.20
2010,03,20,07,42,4.20
2010,03,20,07,43,4.20
2010,03,20,07,44,4.20
2010,03,20,07,45,4.20
2010,03,20,07,46,4.20
2010,03,20,07,47,4.20
2010,03,20,07,48,4.20
2010,03,20,07,49,4.20
2010,03,20,07,50,4.20
2010,03,20,07,51,4.20
2010,03,20,07,52,4.30
2010,03,20,07,53,4.30
2010,03,20,07,54,4.30
2010,03,20,07,55,4.30
2010,03,20,07,56,4.30
2010,03,20,07,57,4.20
2010,03,20,07,58,4.20
2010,03,20,07,59,4.20
2010,03,20,08,00,4.20
2010,03,20,08,01,4.20
2010,03,20,08,02,4.20
2010,03,20,08,03,4.20
2010,03,20,08,04,4.10
2010,03,20,08,05,4.10
2010,03,20,08,06,4.10
2010,03,20,08,07,4.10
2010,03,20,08,08,4.20
2010,03,20,08,09,4.20
2010,03,20,08,10,4.20
2010,03,20,08,11,4.20
2010,03,20,08,12,4.30
2010,03,20,08,13,4.30
2010,03,20,08,14,4.30
2010,03,20,08,15,4.30
2010,03,20,08,16,4.40
2010,03,20,08,17,4.40
2010,03,20,08,18,4.40
2010,03,20,08,19,4.40
2010,03,20,08,20,4.50
2010,03,20,08,21,4.50
2010,03,20,08,22,4.50
2010,03,20,08,23,4.60
2010,03,20,08,24,4.60
2010,03,20,08,25,4.60
2010,03,20,08,26,4.60
2010,03,20,08,27,4.70
2010,03,20,08,28,4.70
2010,03,20,08,29,4.70
2010,03,20,08,30,4.80
2010,03,20,08,31,4.80
2010,03,20,08,32,4.80
2010,03,20,08,33,4.90
2010,03,20,08,34,4.90
2010,03,20,08,35,4.90
2010,03,20,08,36,4.90
2010,03,20,08,37,4.90
2010,03,20,08,38,5.00
2010,03,20,08,39,5.00
2010,03,20,08,40,5.10
2010,03,20,08,41,5.10
2010,03,20,08,42,5.10
2010,03,20,08,43,5.10
2010,03,20,08,44,5.10
2010,03,20,08,45,5.20
2010,03,20,08,46,5.20
2010,03,20,08,47,5.30
2010,03,20,08,48,5.40
2010,03,20,08,49,5.40
2010,03,20,08,50,5.50
2010,03,20,08,51,5.60
2010,03,20,08,52,5.60
2010,03,20,08,53,5.60
2010,03,20,08,54,5.60
2010,03,20,08,55,5.60
2010,03,20,08,56,5.60
2010,03,20,08,57,5.60
2010,03,20,08,58,5.60
2010,03,20,08,59,5.60
2010,03,20,09,00,5.70
2010,03,20,09,01,5.70
2010,03,20,09,02,5.70
2010,03,20,09,03,5.70
2010,03,20,09,04,5.70
2010,03,20,09,05,5.70
2010,03,20,09,06,5.80
2010,03,20,09,07,5.80
2010,03,20,09,08,5.80
2010,03,20,09,09,5.80
2010,03,20,09,10,5.80
2010,03,20,09,11,5.90
2010,03,20,09,12,5.90
2010,03,20,09,13,5.90
2010,03,20,09,14,6.00
2010,03,20,09,15,6.10
2010,03,20,09,16,6.10
2010,03,20,09,17,6.20
2010,03,20,09,18,6.20
2010,03,20,09,19,6.30
2010,03,20,09,20,6.30
2010,03,20,09,21,6.30
2010,03,20,09,22,6.40
2010,03,20,09,23,6.40
2010,03,20,09,24,6.40
2010,03,20,09,25,6.50
2010,03,20,09,26,6.50
2010,03,20,09,27,6.60
2010,03,20,09,28,6.60
2010,03,20,09,29,6.60
2010,03,20,09,30,6.70
2010,03,20,09,31,6.70
2010,03,20,09,32,6.80
2010,03,20,09,33,6.80
2010,03,20,09,34,6.90
2010,03,20,09,35,6.90
2010,03,20,09,36,6.90
2010,03,20,09,37,6.90
2010,03,20,09,38,6.90
2010,03,20,09,39,6.80
2010,03,20,09,40,6.80
2010,03,20,09,41,6.80
2010,03,20,09,42,6.80
2010,03,20,09,43,6.80
2010,03,20,09,44,6.90
2010,03,20,09,45,6.90
2010,03,20,09,46,6.90
2010,03,20,09,47,7.00
2010,03,20,09,48,7.00
2010,03,20,09,49,7.10
2010,03,20,09,50,7.10
2010,03,20,09,51,7.20
2010,03,20,09,52,7.20
2010,03,20,09,53,7.20
2010,03,20,09,54,7.20
2010,03,20,09,55,7.20
2010,03,20,09,56,7.20
2010,03,20,09,57,7.30
2010,03,20,09,58,7.30
2010,03,20,09,59,7.30
2010,03,20,10,00,7.30
2010,03,20,10,01,7.40
2010,03,20,10,02,7.50
2010,03,20,10,03,7.50
2010,03,20,10,04,7.60
2010,03,20,10,05,7.70
2010,03,20,10,06,7.70
2010,03,20,10,07,7.70
2010,03,20,10,08,7.70
2010,03,20,10,09,7.70
2010,03,20,10,10,7.80
2010,03,20,10,11,7.80
2010,03,20,10,12,7.80
2010,03,20,10,13,7.90
2010,03,20,10,14,7.90
2010,03,20,10,15,8.00
2010,03,20,10,16,8.10
2010,03,20,10,17,8.10
2010,03,20,10,18,8.20
2010,03,20,10,19,8.20
2010,03,20,10,20,8.20
2010,03,20,10,21,8.20
2010,03,20,10,22,8.20
2010,03,20,10,23,8.20
2010,03,20,10,24,8.30
2010,03,20,10,25,8.30
2010,03,20,10,26,8.30
2010,03,20,10,27,8.40
2010,03,20,10,28,8.40
2010,03,20,10,29,8.40
2010,03,20,10,30,8.40
2010,03,20,10,31,8.40
2010,03,20,10,32,8.40
2010,03,20,10,33,8.50
2010,03,20,10,34,8.50
2010,03,20,10,35,8.50
2010,03,20,10,36,8.60
2010,03,20,10,37,8.60
2010,03,20,10,38,8.60
2010,03,20,10,39,8.60
2010,03,20,10,40,8.60
2010,03,20,10,41,8.70
2010,03,20,10,42,8.70
2010,03,20,10,43,8.80
2010,03,20,10,44,8.80
2010,03,20,10,45,8.90
2010,03,20,10,46,9.00
2010,03,20,10,47,9.10
2010,03,20,10,48,9.10
2010,03,20,10,49,9.10
2010,03,20,10,50,9.10
2010,03,20,10,51,9.10
2010,03,20,10,52,9.20
2010,03,20,10,53,9.20
2010,03,20,10,54,9.30
2010,03,20,10,55,9.40
2010,03,20,10,56,9.50
2010,03,20,10,57,9.60
2010,03,20,10,58,9.60
2010,03,20,10,59,9.60
2010,03,20,11,00,9.60
2010,03,20,11,01,9.60
2010,03,20,11,02,9.70
2010,03,20,11,03,9.70
2010,03,20,11,04,9.70
2010,03,20,11,05,9.70
2010,03,20,11,06,9.70
2010,03,20,11,07,9.70
2010,03,20,11,08,9.70
2010,03,20,11,09,9.70
2010,03,20,11,10,9.70
2010,03,20,11,11,9.70
2010,03,20,11,12,9.70
2010,03,20,11,13,9.70
2010,03,20,11,14,9.60
2010,03,20,11,15,9.60
2010,03,20,11,16,9.70
2010,03,20,11,17,9.70
2010,03,20,11,18,9.80
2010,03,20,11,19,9.80
2010,03,20,11,20,9.90
2010,03,20,11,21,9.90
2010,03,20,11,22,10.00
2010,03,20,11,23,10.00
2010,03,20,11,24,10.00
2010,03,20,11,25,10.10
2010,03,20,11,26,10.00
2010,03,20,11,27,10.00
2010,03,20,11,28,10.00
2010,03,20,11,29,9.90
2010,03,20,11,30,9.90
2010,03,20,11,31,9.90
2010,03,20,11,32,9.90
2010,03,20,11,33,9.90
2010,03,20,11,34,9.90
2010,03,20,11,35,9.90
2010,03,20,11,36,9.90
2010,03,20,11,37,9.80
2010,03,20,11,38,9.80
2010,03,20,11,39,9.80
2010,03,20,11,40,9.90
2010,03,20,11,41,9.90
2010,03,20,11,42,9.90
2010,03,20,11,43,9.90
2010,03,20,11,44,9.90
2010,03,20,11,45,10.00
2010,03,20,11,46,10.00
2010,03,20,11,47,10.10
2010,03,20,11,48,10.20
2010,03,20,11,49,10.20
2010,03,20,11,50,10.20
2010,03,20,11,51,10.20
2010,03,20,11,52,10.20
2010,03,20,11,53,10.20
2010,03,20,11,54,10.20
2010,03,20,11,55,10.20
2010,03,20,11,56,10.30
2010,03,20,11,57,10.30
2010,03,20,11,58,10.30
2010,03,20,11,59,10.40
2010,03,20,12,00,10.50
2010,03,20,12,01,10.50
2010,03,20,12,02,10.50
2010,03,20,12,03,10.60
2010,03,20,12,04,10.60
2010,03,20,12,05,10.60
2010,03,20,12,06,10.70
2010,03,20,12,07,10.70
2010,03,20,12,08,10.60
2010,03,20,12,09,10.60
2010,03,20,12,10,10.60
2010,03,20,12,11,10.60
2010,03,20,12,12,10.60
2010,03,20,12,13,10.60
2010,03,20,12,14,10.60
2010,03,20,12,15,10.60
2010,03,20,12,16,10.60
2010,03,20,12,17,10.50
2010,03,20,12,18,10.50
2010,03,20,12,19,10.50
2010,03,20,12,20,10.50
2010,03,20,12,21,10.50
2010,03,20,12,22,10.50
2010,03,20,12,23,10.50
2010,03,20,12,24,10.60
2010,03,20,12,25,10.60
2010,03,20,12,26,10.60
2010,03,20,12,27,10.60
2010,03,20,12,28,10.60
2010,03,20,12,29,10.60
2010,03,20,12,30,10.60
2010,03,20,12,31,10.70
2010,03,20,12,32,10.70
2010,03,20,12,33,10.80
2010,03,20,12,34,10.80
2010,03,20,12,35,10.90
2010,03,20,12,36,11.00
2010,03,20,12,37,11.00
2010,03,20,12,38,11.10
2010,03,20,12,39,11.10
2010,03,20,12,40,11.20
2010,03,20,12,41,11.20
2010,03,20,12,42,11.30
2010,03,20,12,43,11.30
2010,03,20,12,44,11.40
2010,03,20,12,45,11.40
2010,03,20,12,46,11.40
2010,03,20,12,47,11.40
2010,03,20,12,48,11.50
2010,03,20,12,49,11.50
2010,03,20,12,50,11.60
2010,03,20,12,51,11.70
2010,03,20,12,52,11.70
2010,03,20,12,53,11.80
2010,03,20,12,54,11.80
2010,03,20,12,55,11.90
2010,03,20,12,56,11.90
2010,03,20,12,57,11.90
2010,03,20,12,58,12.00
2010,03,20,12,59,12.00
2010,03,20,13,00,11.90
2010,03,20,13,01,11.90
2010,03,20,13,02,11.80
2010,03,20,13,03,11.80
2010,03,20,13,04,11.70
2010,03,20,13,05,11.70
2010,03,20,13,06,11.70
2010,03,20,13,07,11.70
2010,03,20,13,08,11.70
2010,03,20,13,09,11.70
2010,03,20,13,10,11.60
2010,03,20,13,11,11.60
2010,03,20,13,12,11.60
2010,03,20,13,13,11.60
2010,03,20,13,14,11.60
2010,03,20,13,15,11.60
2010,03,20,13,16,11.70
2010,03,20,13,17,11.70
2010,03,20,13,18,11.70
2010,03,20,13,19,11.70
2010,03,20,13,20,11.70
2010,03,20,13,21,11.80
2010,03,20,13,22,11.80
2010,03,20,13,23,11.80
2010,03,20,13,24,11.80
2010,03,20,13,25,11.80
2010,03,20,13,26,11.80
2010,03,20,13,27,11.80
2010,03,20,13,28,11.80
2010,03,20,13,29,11.80
2010,03,20,13,30,11.70
2010,03,20,13,31,11.70
2010,03,20,13,32,11.70
2010,03,20,13,33,11.60
2010,03,20,13,34,11.60
2010,03,20,13,35,11.50
2010,03,20,13,36,11.50
2010,03,20,13,37,11.40
2010,03,20,13,38,11.50
2010,03,20,13,39,11.50
2010,03,20,13,40,11.60
2010,03,20,13,41,11.60
2010,03,20,13,42,11.60
2010,03,20,13,43,11.60
2010,03,20,13,44,11.60
2010,03,20,13,45,11.60
2010,03,20,13,46,11.60
2010,03,20,13,47,11.60
2010,03,20,13,48,11.60
2010,03,20,13,49,11.60
2010,03,20,13,50,11.60
2010,03,20,13,51,11.60
2010,03,20,13,52,11.70
2010,03,20,13,53,11.70
2010,03,20,13,54,11.60
2010,03,20,13,55,11.60
2010,03,20,13,56,11.60
2010,03,20,13,57,11.50
2010,03,20,13,58,11.50
2010,03,20,13,59,11.50
2010,03,20,14,00,11.60
2010,03,20,14,01,11.60
2010,03,20,14,02,11.60
2010,03,20,14,03,11.70
2010,03,20,14,04,11.80
2010,03,20,14,05,11.80
2010,03,20,14,06,11.90
2010,03,20,14,07,11.90
2010,03,20,14,08,11.90
2010,03,20,14,09,11.90
2010,03,20,14,10,11.90
2010,03,20,14,11,11.90
2010,03,20,14,12,11.90
2010,03,20,14,13,11.90
2010,03,20,14,14,12.00
2010,03,20,14,15,12.00
2010,03,20,14,16,12.00
2010,03,20,14,17,12.00
2010,03,20,14,18,12.00
2010,03,20,14,19,12.00
2010,03,20,14,20,12.00
2010,03,20,14,21,12.10
2010,03,20,14,22,12.20
2010,03,20,14,23,12.30
2010,03,20,14,24,12.30
2010,03,20,14,25,12.30
2010,03,20,14,26,12.40
2010,03,20,14,27,12.30
2010,03,20,14,28,12.40
2010,03,20,14,29,12.30
2010,03,20,14,30,12.30
2010,03,20,14,31,12.30
2010,03,20,14,32,12.40
2010,03,20,14,33,12.40
2010,03,20,14,34,12.40
2010,03,20,14,35,12.40
2010,03,20,14,36,12.40
2010,03,20,14,37,12.40
2010,03,20,14,38,12.40
2010,03,20,14,39,12.30
2010,03,20,14,40,12.30
2010,03,20,14,41,12.20
2010,03,20,14,42,12.20
2010,03,20,14,43,12.20
2010,03,20,14,44,12.30
2010,03,20,14,45,12.40
2010,03,20,14,46,12.40
2010,03,20,14,47,12.40
2010,03,20,14,48,12.40
2010,03,20,14,49,12.30
2010,03,20,14,50,12.30
2010,03,20,14,51,12.30
2010,03,20,14,52,12.20
2010,03,20,14,53,12.30
2010,03,20,14,54,12.30
2010,03,20,14,55,12.30
2010,03,20,14,56,12.30
2010,03,20,14,57,12.40
2010,03,20,14,58,12.40
2010,03,20,14,59,12.40
2010,03,20,15,00,12.40
2010,03,20,15,01,12.40
2010,03,20,15,02,12.50
2010,03,20,15,03,12.40
2010,03,20,15,04,12.40
2010,03,20,15,05,12.40
2010,03,20,15,06,12.40
2010,03,20,15,07,12.50
2010,03,20,15,08,12.50
2010,03,20,15,09,12.50
2010,03,20,15,10,12.60
2010,03,20,15,11,12.60
2010,03,20,15,12,12.60
2010,03,20,15,13,12.70
2010,03,20,15,14,12.70
2010,03,20,15,15,12.80
2010,03,20,15,16,12.80
2010,03,20,15,17,12.90
2010,03,20,15,18,12.80
2010,03,20,15,19,12.80
2010,03,20,15,20,12.80
2010,03,20,15,21,12.80
2010,03,20,15,22,12.80
2010,03,20,15,23,12.80
2010,03,20,15,24,12.80
2010,03,20,15,25,12.80
2010,03,20,15,26,12.90
2010,03,20,15,27,12.90
2010,03,20,15,28,12.90
2010,03,20,15,29,13.00
2010,03,20,15,30,13.00
2010,03,20,15,31,13.00
2010,03,20,15,32,13.00
2010,03,20,15,33,13.10
2010,03,20,15,34,13.10
2010,03,20,15,35,13.10
2010,03,20,15,36,13.10
2010,03,20,15,37,13.20
2010,03,20,15,38,13.20
2010,03,20,15,39,13.20
2010,03,20,15,40,13.30
2010,03,20,15,41,13.30
2010,03,20,15,42,13.30
2010,03,20,15,43,13.30
2010,03,20,15,44,13.20
2010,03,20,15,45,13.20
2010,03,20,15,46,13.20
2010,03,20,15,47,13.20
2010,03,20,15,48,13.20
2010,03,20,15,49,13.20
2010,03,20,15,50,13.20
2010,03,20,15,51,13.20
2010,03,20,15,52,13.30
2010,03,20,15,53,13.20
2010,03,20,15,54,13.30
2010,03,20,15,55,13.30
2010,03,20,15,56,13.30
2010,03,20,15,57,13.30
2010,03,20,15,58,13.30
2010,03,20,15,59,13.40
2010,03,20,16,00,13.40
2010,03,20,16,01,13.40
2010,03,20,16,02,13.50
2010,03,20,16,03,13.50
2010,03,20,16,04,13.60
2010,03,20,16,05,13.60
2010,03,20,16,06,13.60
2010,03,20,16,07,13.60
2010,03,20,16,08,13.60
2010,03,20,16,09,13.70
2010,03,20,16,10,13.70
2010,03,20,16,11,13.70
2010,03,20,16,12,13.70
2010,03,20,16,13,13.70
2010,03,20,16,14,13.70
2010,03,20,16,15,13.70
2010,03,20,16,16,13.70
2010,03,20,16,17,13.70
2010,03,20,16,18,13.70
2010,03,20,16,19,13.80
2010,03,20,16,20,13.80
2010,03,20,16,21,13.80
2010,03,20,16,22,13.90
2010,03,20,16,23,13.90
2010,03,20,16,24,13.90
2010,03,20,16,25,13.90
2010,03,20,16,26,13.90
2010,03,20,16,27,14.00
2010,03,20,16,28,14.00
2010,03,20,16,29,14.10
2010,03,20,16,30,14.10
2010,03,20,16,31,14.10
2010,03,20,16,32,14.20
2010,03,20,16,33,14.20
2010,03,20,16,34,14.20
2010,03,20,16,35,14.20
2010,03,20,16,36,14.30
2010,03,20,16,37,14.30
2010,03,20,16,38,14.30
2010,03,20,16,39,14.30
2010,03,20,16,40,14.30
2010,03,20,16,41,14.30
2010,03,20,16,42,14.40
2010,03,20,16,43,14.40
2010,03,20,16,44,14.40
2010,03,20,16,45,14.40
2010,03,20,16,46,14.40
2010,03,20,16,47,14.40
2010,03,20,16,48,14.30
2010,03,20,16,49,14.30
2010,03,20,16,50,14.20
2010,03,20,16,51,14.20
2010,03,20,16,52,14.10
2010,03,20,16,53,14.00
2010,03,20,16,54,13.90
2010,03,20,16,55,13.90
2010,03,20,16,56,13.90
2010,03,20,16,57,13.90
2010,03,20,16,58,13.90
2010,03,20,16,59,13.90
2010,03,20,17,00,13.80
2010,03,20,17,01,13.80
2010,03,20,17,02,13.80
2010,03,20,17,03,13.80
2010,03,20,17,04,13.80
2010,03,20,17,05,13.80
2010,03,20,17,06,13.80
2010,03,20,17,07,13.80
2010,03,20,17,08,13.80
2010,03,20,17,09,13.90
2010,03,20,17,10,13.90
2010,03,20,17,11,13.90
2010,03,20,17,12,13.90
2010,03,20,17,13,14.00
2010,03,20,17,14,14.00
2010,03,20,17,15,14.10
2010,03,20,17,16,14.10
2010,03,20,17,17,14.10
2010,03,20,17,18,14.10
2010,03,20,17,19,14.10
2010,03,20,17,20,14.10
2010,03,20,17,21,14.20
2010,03,20,17,22,14.20
2010,03,20,17,23,14.20
2010,03,20,17,24,14.20
2010,03,20,17,25,14.20
2010,03,20,17,26,14.20
2010,03,20,17,27,14.20
2010,03,20,17,28,14.20
2010,03,20,17,29,14.10
2010,03,20,17,30,14.00
2010,03,20,17,31,13.80
2010,03,20,17,32,13.70
2010,03,20,17,33,13.60
2010,03,20,17,34,13.40
2010,03,20,17,35,13.30
2010,03,20,17,36,13.20
2010,03,20,17,37,13.20
2010,03,20,17,38,13.10
2010,03,20,17,39,13.10
2010,03,20,17,40,13.10
2010,03,20,17,41,13.00
2010,03,20,17,42,13.00
2010,03,20,17,43,13.00
2010,03,20,17,44,12.90
2010,03,20,17,45,12.80
2010,03,20,17,46,12.80
2010,03,20,17,47,12.70
2010,03,20,17,48,12.70
2010,03,20,17,49,12.60
2010,03,20,17,50,12.70
2010,03,20,17,51,12.80